星链-30847 (STARLINK-30847 )

导读 | 星芒AI

STARLINK-30847 是 SpaceX Starlink 卫星互联网项目中的第 30847 颗卫星。该卫星属于 Starlink 群体部署计划的一部分,旨在通过低地球轨道卫星提供全球高速互联网服务。它于近期由 Falcon 9 火箭发射入轨,运行在约 550 公里的轨道高度,配备先进推进系统和激光通信技术,以提升网络连接效率和稳定性。该卫星的部署进一步扩展了 Starlink 的覆盖范围和网络容量。

基本信息
目录编号:
58239
目录名称:
STARLINK-30847
国际标识:
2023-171K
轨道中心:
EARTH
卫星名称:
星链-30847
卫星全名:
星链-30847 (STARLINK-30847 )
卫星状态:
在轨 (已飞行723 天)
发射日期:
2023-11-08 UTC
国别 :
美国 (US)
星等 :
--
轨道信息
数据来源 国际轨道数据
星历时间: 2025-10-30T22:35:03+0800
17小时前
查看轨道信息
半长轴: 6937.223km
偏心率: 0.0001164
轨道倾角: 43.005°
近地点辐角 266.583°
升交点赤经 273.178°
平近点角 93.488°
近地点: 558.28km
远地点: 559.896km
周期: 95.838分钟
每日圈数: 15.025342
详细信息
固有亮度:
5
最大亮度:
0.3
卫星平台:
Starlink v2.0 mini
覆盖范围:
全球
运营商:
太空探索技术公司
运营商所在国:
美国
制造商(研发单位):
太空探索技术公司
制造商所在国:
美国
使用方式:
暂无
卫星简介
星链(Starlink)计划是由太空探索技术公司(SpaceX)提出的一个巨型低轨卫星互联网星座项目,计划在2019年至2024年间在太空搭建由约1.2万颗卫星组成的“星链”网络,其中1584颗将部署在地球上空550千米处的近地轨道,并从2020年开始工作。该卫星仍在工作。
2D轨道图
3D轨道图
轨道高度分析图
轨道倾角分析图
轨道综合分析图
查看轨道综合分析图